GFSSW_700_spd_015.txt.gz
Wind_Speed
8 7 6 4 4 4 4 3 2 2 2 2 1 1 0 2 3 3 4 5 6 4 7 11 16 17 14 10 10 9 11 9 9 7 10 8 2 8 6 3 4 2 2 7 11
9 8 8 7 6 7 6 5 5 4 3 3 2 2 2 1 2 1 1 4 5 5 6 11 15 19 16 12 8 10 4 9 11 15 17 10 8 10 12 9 4 4 3 3 8
11 11 10 10 9 9 8 8 7 6 6 5 4 3 2 2 3 3 2 2 3 3 3 10 18 22 19 13 10 6 2 8 10 20 23 23 18 17 14 8 7 6 5 4 8
13 13 12 11 10 11 11 10 9 8 8 7 6 4 3 2 3 3 3 5 3 3 3 6 12 21 19 14 9 8 4 10 14 12 15 11 15 14 10 4 5 1 3 3 7
14 14 13 12 12 12 12 12 11 10 10 9 8 6 6 4 6 5 3 4 5 4 3 6 10 20 20 16 14 10 10 9 10 11 12 9 4 6 9 8 8 7 11 7 3
15 15 14 13 13 13 13 13 13 12 12 11 10 9 8 7 7 8 7 4 5 5 4 6 12 19 21 17 16 15 13 9 8 11 12 9 8 5 11 11 12 9 12 4 9
17 16 16 14 14 14 15 14 15 14 13 13 12 11 9 10 7 8 9 7 6 6 6 11 14 17 24 20 20 15 15 14 12 12 15 15 8 7 10 14 13 10 9 2 5
18 18 17 16 16 16 16 16 16 15 15 14 13 12 9 10 8 9 9 8 7 6 9 14 15 14 19 18 14 11 12 11 2 11 16 18 6 8 10 15 13 13 14 7 10
18 18 17 16 16 16 16 17 16 16 16 15 14 13 12 9 9 13 10 10 8 7 11 13 13 12 11 12 11 13 11 11 11 18 16 2 6 8 3 13 16 13 15 12 10
18 18 17 16 15 16 16 16 16 16 17 16 15 12 13 11 13 12 14 13 11 11 12 12 13 11 9 9 3 10 7 8 11 15 20 17 5 5 7 15 19 15 15 13 11
18 17 16 15 15 14 14 14 16 18 19 17 13 12 13 13 13 11 13 16 17 15 16 13 11 11 2 4 11 9 9 13 5 15 14 14 12 11 12 17 21 25 14 17 13
17 16 16 16 15 13 14 15 16 18 16 17 17 17 17 15 15 14 16 14 18 17 14 13 14 6 7 7 7 8 11 9 13 14 15 16 13 12 8 11 17 20 11 17 11
18 15 17 17 14 12 15 15 14 14 18 14 18 18 16 20 18 13 13 12 13 15 14 13 6 14 10 8 6 8 14 12 15 16 18 15 9 7 5 7 15 18 19 17 14
19 19 20 15 15 15 16 14 11 11 12 13 12 15 21 21 22 15 13 10 14 13 12 14 15 11 8 7 5 11 5 11 15 15 11 11 4 6 12 12 10 17 21 12 5
21 20 17 14 16 17 18 11 8 6 4 3 7 10 15 27 11 5 16 16 13 9 12 9 7 8 12 11 11 15 12 14 12 12 10 10 6 6 13 9 6 8 15 8 4
19 18 16 16 18 21 18 10 8 4 7 3 5 7 12 23 25 12 12 16 15 15 17 18 17 19 17 16 12 12 18 17 15 8 5 9 6 9 9 7 8 9 8 8 3
18 18 16 17 18 19 17 14 8 8 5 2 7 10 10 8 22 21 12 18 20 16 22 19 22 22 20 17 13 13 12 5 3 2 6 7 6 5 7 7 6 10 5 7 5
19 18 17 18 19 17 17 18 11 8 14 6 4 11 17 15 15 21 24 18 18 23 18 10 13 9 20 19 12 13 14 10 6 4 4 7 4 6 8 13 8 7 12 9 7
19 18 16 22 21 19 20 23 14 13 6 15 6 4 9 20 17 10 17 22 21 18 21 7 10 8 11 11 6 6 15 15 12 1 1 6 9 4 8 16 10 14 18 5 12
14 15 17 24 22 22 23 26 20 15 12 5 3 4 3 3 11 16 16 15 24 22 22 23 21 12 13 13 14 11 17 8 8 4 3 4 4 9 13 10 11 17 18 10 8
11 12 15 19 22 24 28 27 25 18 17 16 9 8 2 2 0 4 9 16 14 19 28 31 30 19 15 12 12 11 12 14 10 5 7 3 6 6 8 14 16 17 21 15 10
8 13 13 18 23 29 31 28 27 17 21 23 16 16 8 5 9 5 12 11 2 9 13 27 14 25 21 15 14 17 16 14 17 7 6 5 11 11 13 15 19 17 12 10 2
9 16 15 17 13 20 23 24 24 26 20 19 16 18 13 7 3 6 13 10 6 3 7 11 24 31 29 26 16 9 10 15 18 24 19 6 13 13 18 21 18 16 13 10 8
14 15 19 20 14 12 12 16 18 19 19 19 22 22 19 13 9 8 12 11 12 5 3 6 15 27 29 23 6 11 7 5 3 5 16 22 21 20 18 25 21 16 11 9 12
15 16 23 24 19 15 14 9 10 14 18 11 11 14 15 18 12 14 17 17 15 11 6 5 9 7 18 26 23 23 22 17 11 12 14 14 15 17 17 23 20 16 10 7 15
11 17 23 17 24 20 19 16 17 14 13 15 18 20 12 13 17 13 15 12 9 14 10 6 5 4 2 6 8 8 12 20 14 9 10 12 17 19 13 12 20 16 9 10 19
10 14 22 23 18 19 21 22 20 18 13 13 14 20 14 11 19 15 16 17 11 8 10 6 5 6 5 7 9 12 10 13 11 5 11 14 15 15 15 17 16 12 10 18 17

GFSSW_700_spd_021.txt.gz
Wind_Speed
6 6 5 3 3 2 3 3 2 2 2 2 3 4 4 4 4 4 4 5 6 7 9 11 11 13 11 10 13 19 16 13 11 10 8 9 7 7 7 8 7 7 2 3 4
9 9 8 6 4 3 3 2 3 3 2 2 3 4 4 4 4 3 4 6 5 8 11 14 14 13 11 11 10 14 10 9 7 9 10 4 4 7 8 7 5 6 4 1 1
11 11 10 9 7 5 5 4 4 3 3 2 2 3 4 4 5 4 4 4 6 6 8 15 16 14 12 10 7 10 7 5 5 8 9 7 6 6 5 2 3 3 4 4 1
13 12 11 10 9 8 8 7 5 5 4 3 3 3 3 3 5 5 6 5 6 6 8 13 16 15 14 10 8 7 4 2 4 8 8 7 6 7 7 4 5 4 5 5 1
15 14 13 12 11 11 10 9 8 7 5 4 3 3 4 3 4 6 5 6 7 8 9 12 17 14 13 12 9 9 7 4 4 6 8 10 7 8 8 8 7 7 6 2 4
16 16 15 14 13 13 12 11 10 8 7 5 4 4 4 5 5 7 5 5 6 9 10 12 19 18 15 13 13 12 9 8 7 8 12 15 13 11 10 9 7 7 6 6 2
17 17 17 16 15 14 14 13 12 10 9 8 5 5 5 6 5 8 7 6 5 7 10 12 17 21 17 16 18 17 14 9 11 12 7 12 14 12 10 9 8 7 7 9 0
17 18 18 17 16 16 16 14 14 12 11 9 7 7 7 7 8 7 7 7 7 7 8 10 12 16 16 16 14 15 14 10 4 5 10 11 7 8 9 9 6 5 9 10 8
18 18 18 18 17 18 18 16 15 13 12 11 9 8 9 9 10 11 9 9 9 9 9 9 11 11 9 11 14 14 10 10 5 4 11 9 7 5 8 4 7 4 9 12 14
18 18 18 17 17 18 19 15 15 14 13 12 11 10 11 10 11 12 11 10 11 11 10 10 10 9 9 9 7 11 14 13 6 8 9 7 8 4 4 5 7 4 8 13 16
19 19 18 16 16 18 19 14 15 15 14 13 6 14 9 13 10 12 13 13 13 12 12 12 11 9 3 7 10 9 10 7 4 4 9 8 9 7 4 5 6 6 7 13 17
18 19 18 16 16 17 17 14 14 14 12 13 15 15 12 12 12 14 14 14 15 15 14 14 12 8 9 6 8 12 9 5 7 7 8 7 6 5 3 5 6 8 11 15 15
17 17 16 15 15 16 14 13 12 12 13 11 13 15 19 16 15 15 13 11 12 13 14 14 9 9 13 11 9 8 8 4 6 9 7 3 1 5 6 10 11 12 12 13 16
16 15 14 14 14 14 12 11 10 9 5 5 11 15 18 21 19 16 15 12 13 12 11 12 15 10 12 10 8 6 4 2 6 5 3 3 4 6 6 6 5 8 8 8 10
16 15 14 15 13 12 11 9 8 4 1 4 9 10 14 21 13 20 18 16 12 10 15 5 6 16 15 9 10 6 5 3 6 6 6 6 4 6 6 5 7 4 5 8 9
17 15 16 15 14 13 11 8 7 4 5 5 7 8 10 20 18 14 26 20 14 11 11 11 9 12 16 13 11 11 6 6 6 5 6 9 6 7 10 9 7 5 5 9 9
17 16 16 16 16 15 13 12 7 6 6 6 8 9 11 17 22 14 23 25 19 15 16 14 17 18 15 16 18 13 7 3 3 4 5 7 4 5 7 9 9 4 7 10 8
18 17 16 18 18 18 17 17 9 7 9 9 7 7 7 11 22 18 13 21 23 15 6 5 4 9 14 23 19 20 15 7 3 3 1 6 5 7 9 10 8 6 8 9 9
16 16 18 19 19 19 21 21 11 14 12 13 7 4 8 10 6 25 18 17 17 15 9 5 2 5 2 5 19 13 15 12 8 5 4 5 10 13 8 5 2 3 8 7 9
14 16 18 20 20 21 24 25 19 13 12 7 12 7 8 10 12 14 11 8 22 22 15 8 6 6 4 7 13 8 10 4 7 4 5 3 7 6 6 2 1 8 5 9 8
12 14 18 19 20 23 28 26 25 17 14 13 8 9 8 9 14 18 11 6 5 10 20 21 14 9 6 7 11 12 12 7 5 5 4 3 4 4 8 7 10 11 3 11 16
11 14 16 18 22 26 30 23 23 23 16 15 12 11 9 9 9 12 13 11 10 8 9 12 9 10 10 12 15 7 9 10 6 5 7 5 11 11 13 10 6 9 8 12 19
9 13 13 17 22 26 27 29 21 20 17 21 15 15 14 10 7 10 11 13 9 5 5 10 11 5 2 7 11 17 12 16 15 11 10 6 10 12 10 7 10 10 9 12 13
8 9 13 17 21 22 23 21 23 22 21 19 14 14 14 16 13 10 11 11 10 7 5 4 9 11 10 5 8 4 14 16 13 5 5 8 8 6 8 9 9 10 9 11 12
8 10 13 17 17 14 16 15 21 17 18 17 17 19 18 14 18 15 12 14 11 7 7 6 6 9 10 11 11 11 10 10 8 8 9 7 6 2 6 11 15 9 13 12 10
7 10 12 16 20 15 15 14 14 15 15 14 13 14 17 17 17 15 18 16 12 11 8 8 5 7 9 8 8 9 14 20 18 12 12 10 7 8 7 11 13 13 11 13 11
6 10 13 14 16 17 16 14 13 12 11 13 15 16 14 15 16 19 19 19 11 13 12 9 10 9 9 9 7 7 12 13 15 13 12 11 6 7 9 11 9 10 12 11 12

GFSSW_700_spd_027.txt.gz
Wind_Speed
7 6 6 5 5 5 4 4 4 4 4 4 4 3 3 4 3 1 1 2 2 4 7 8 11 12 7 1 8 5 7 8 6 7 9 6 3 4 4 3 4 5 4 6 9
8 8 7 6 6 5 5 5 4 4 4 5 4 4 3 2 1 1 0 1 2 4 7 10 12 14 4 6 6 3 6 8 5 5 4 5 4 4 3 2 2 2 2 5 7
10 9 9 8 7 6 6 5 5 5 5 6 6 6 5 3 1 3 2 1 3 5 8 11 16 8 8 7 5 1 10 7 4 2 4 4 3 3 3 2 3 4 2 3 3
13 12 11 10 9 7 6 6 6 5 5 6 5 6 6 4 2 7 5 2 2 4 10 11 13 7 8 5 6 2 3 5 0 3 4 4 2 3 2 4 1 4 4 2 2
14 14 13 12 11 10 9 8 7 6 6 6 6 5 6 5 9 7 7 5 1 4 10 10 8 8 7 8 7 3 4 3 4 5 6 7 6 6 3 2 5 6 4 3 5
16 16 15 13 13 12 11 9 8 7 7 7 7 6 6 3 9 8 8 7 5 3 7 11 8 11 7 8 8 6 6 6 6 7 8 7 6 5 7 4 1 4 5 12 12
17 17 16 16 15 14 12 10 9 8 8 8 7 7 7 12 8 9 8 7 8 5 5 10 12 8 8 6 12 7 7 7 7 5 5 11 7 3 6 1 3 6 5 14 12
18 18 18 18 17 16 14 12 11 10 9 9 8 8 7 9 9 9 9 7 8 8 7 5 7 9 9 9 8 10 10 12 11 5 4 7 7 3 4 3 6 3 6 15 12
17 17 19 19 19 17 16 14 13 13 11 10 10 9 7 11 10 10 9 8 9 7 7 6 5 6 9 9 10 13 16 13 3 4 5 4 5 1 3 5 8 6 7 12 14
17 16 17 18 18 19 17 16 14 14 11 10 10 7 13 9 14 11 11 9 8 7 5 5 4 7 8 12 12 6 11 7 8 4 5 7 4 4 3 5 7 6 8 9 13
17 17 17 17 17 17 16 15 12 13 16 11 6 13 9 16 11 12 11 10 9 7 6 7 7 12 12 10 9 7 7 8 7 9 7 7 8 8 6 5 8 9 10 10 10
18 17 17 17 16 16 15 13 16 16 15 13 17 16 17 11 11 14 13 10 10 9 10 7 10 8 10 7 7 8 9 11 8 9 9 10 11 9 8 8 9 10 13 9 10
18 17 17 16 16 16 16 17 15 14 15 11 17 19 16 15 11 14 13 13 10 11 12 13 3 9 7 9 9 10 12 9 10 6 12 12 17 11 9 6 9 9 12 12 13
18 16 16 15 15 15 17 15 13 11 8 16 18 18 19 13 14 13 14 12 11 12 13 13 12 7 9 11 10 12 10 10 9 11 14 4 16 9 7 6 7 6 9 11 11
17 17 16 16 14 15 14 14 12 9 7 14 13 21 16 20 7 17 17 16 11 9 12 7 9 13 10 10 9 6 6 7 9 12 13 11 9 9 7 4 5 4 7 9 13
17 17 17 16 15 15 14 14 12 9 11 9 11 18 19 23 12 13 18 17 13 12 13 13 8 8 11 11 11 8 7 9 10 13 17 15 9 10 4 3 3 4 4 8 11
17 18 18 17 21 16 15 15 9 15 11 11 11 16 19 20 21 17 21 22 17 15 16 14 15 9 10 11 10 11 10 14 13 14 11 7 6 12 9 5 5 5 6 7 12
16 18 19 19 18 17 18 14 13 17 11 8 10 14 20 19 23 19 19 22 23 16 11 14 17 18 12 15 12 14 15 18 13 9 4 6 4 1 2 7 5 3 4 6 8
14 16 18 19 19 20 21 19 16 13 8 8 11 13 18 20 16 19 22 23 21 21 17 11 9 8 10 13 15 16 17 17 21 22 18 20 13 5 5 4 4 3 0 6 9
12 14 18 19 20 21 22 24 16 11 12 10 11 12 18 19 18 20 21 22 22 21 17 6 8 7 9 10 13 21 11 14 16 14 15 19 6 8 7 2 9 7 3 7 6
9 6 14 18 21 23 25 23 18 13 17 7 14 10 9 16 18 19 18 11 22 20 19 16 10 10 9 12 14 10 18 18 20 16 12 8 6 16 3 2 2 3 6 8 7
7 3 12 16 20 20 21 19 19 15 13 8 13 12 11 10 13 14 19 16 14 20 19 19 12 17 14 8 11 9 14 15 17 17 18 18 13 9 8 3 3 6 5 6 7
6 8 14 17 14 18 19 20 18 14 15 13 11 12 11 10 8 14 13 11 12 11 11 18 16 17 16 16 17 17 16 17 15 17 19 18 2 5 4 3 2 6 9 7 9
4 3 6 16 15 16 21 20 17 15 14 17 13 12 12 13 12 12 15 9 15 11 16 15 15 17 22 4 12 13 15 16 16 20 18 23 21 11 3 4 2 7 9 11 10
2 6 11 7 14 17 12 14 20 17 16 13 15 13 14 14 15 14 13 13 11 15 16 15 16 17 21 17 12 12 11 14 17 19 24 19 10 16 8 6 3 6 11 13 11
6 5 8 6 11 12 16 17 17 18 11 16 17 15 16 16 16 14 15 15 13 15 17 15 15 17 20 19 15 16 16 17 13 17 19 22 16 7 3 4 2 6 11 12 12
7 7 9 8 9 10 14 15 15 16 17 10 15 15 17 15 16 15 15 15 6 10 14 15 15 15 19 20 19 18 18 17 17 17 19 16 11 5 3 2 6 10 13 13 12

GFSSW_700_spd_030.txt.gz
Wind_Speed
5 4 4 3 3 3 3 2 2 2 1 1 1 1 1 2 2 1 1 1 1 3 6 8 10 7 5 2 7 10 15 4 9 16 13 9 5 5 7 8 8 8 7 4 10
8 7 6 5 5 5 4 4 4 4 3 3 2 1 0 2 3 0 3 3 0 3 8 12 7 4 2 4 3 12 2 7 10 6 6 6 2 2 2 11 7 8 4 7 10
9 9 9 8 7 6 5 5 5 5 5 5 4 4 3 1 4 1 3 3 1 4 7 14 13 3 6 4 2 6 10 10 7 6 4 8 4 5 6 8 14 5 7 8 8
12 12 11 10 9 8 7 6 5 6 5 5 5 6 5 5 1 6 4 2 3 5 9 12 12 1 1 2 3 2 2 3 3 4 4 5 2 6 6 10 5 6 7 6 5
14 14 13 11 11 10 9 7 6 6 6 6 5 5 6 6 11 7 6 3 2 5 12 4 3 2 5 5 3 2 2 2 3 4 4 4 4 3 1 3 4 5 5 1 1
16 15 15 13 12 12 11 9 8 7 7 6 6 5 7 3 14 10 8 7 2 5 1 5 2 9 4 5 6 4 5 6 6 5 6 3 6 3 7 3 6 6 7 9 11
16 16 16 15 14 13 12 11 10 8 8 8 7 6 7 9 9 8 9 9 6 5 2 8 7 9 3 2 8 6 6 9 10 4 4 5 13 6 4 5 6 9 11 13 13
17 17 17 16 17 15 13 12 12 11 10 8 8 8 7 8 9 7 8 7 7 7 7 5 5 8 7 5 7 8 9 13 13 5 2 5 6 8 3 7 7 9 10 15 15
16 18 18 18 19 17 15 14 12 12 11 9 9 9 7 7 9 9 7 5 7 7 7 6 5 5 6 8 9 11 13 12 9 3 6 4 6 6 2 6 6 9 11 16 15
16 16 17 17 19 18 17 15 14 13 12 10 8 7 11 6 10 9 8 8 7 6 4 6 5 6 8 12 17 10 11 8 5 3 2 5 5 3 3 4 9 8 11 15 14
17 16 16 16 16 17 16 14 12 11 18 11 6 10 4 10 9 10 9 9 7 6 7 6 8 12 10 12 8 8 9 9 3 4 5 8 7 7 6 3 9 9 13 11 13
18 17 16 16 15 14 13 10 18 16 15 15 18 12 14 11 7 10 11 11 10 9 8 9 11 10 10 5 6 8 9 10 10 6 7 10 11 10 8 5 6 10 13 14 13
20 18 17 16 16 15 14 17 13 14 19 17 17 21 17 15 12 11 14 12 9 10 12 14 4 4 5 6 8 10 11 12 9 5 10 14 17 20 13 11 8 9 12 13 13
19 18 17 16 15 15 11 16 11 10 9 15 18 19 20 14 15 11 17 15 11 12 11 14 13 7 9 11 11 12 11 9 11 11 17 6 16 11 14 10 12 8 10 12 11
17 17 17 15 15 13 20 13 10 7 6 12 18 11 14 23 4 19 18 18 14 12 12 14 13 12 10 10 10 11 5 8 9 13 15 16 13 20 8 6 13 9 6 7 15
16 17 17 17 16 17 12 12 11 8 13 11 15 17 19 23 15 10 20 19 13 13 13 16 5 10 13 11 11 9 9 10 12 16 19 20 15 8 15 5 4 4 4 7 13
16 17 18 17 20 20 16 14 7 14 17 15 15 14 21 20 22 18 21 22 21 16 16 15 17 11 10 11 12 10 10 12 12 15 3 13 14 10 4 11 8 6 2 7 13
15 17 19 19 18 16 18 13 12 14 21 12 12 15 22 22 23 22 19 23 23 19 17 15 19 21 14 14 12 11 14 16 15 13 4 12 9 34 9 5 6 6 7 7 13
13 15 17 19 18 18 21 17 19 17 11 15 14 12 20 22 18 26 22 24 23 22 20 12 14 11 16 10 12 12 16 14 17 24 23 17 10 11 5 1 10 9 9 11 14
10 12 15 18 18 21 24 24 20 10 6 5 13 15 17 22 25 27 22 23 22 22 20 12 8 10 11 11 13 15 16 10 16 14 14 19 8 6 15 7 12 8 10 10 13
6 4 13 14 19 23 26 25 19 7 10 6 11 13 17 11 23 21 21 20 21 22 20 18 8 8 12 10 12 15 13 18 18 23 15 11 2 7 14 11 12 8 10 4 10
9 5 8 11 19 23 23 22 16 13 11 14 11 10 12 12 12 21 19 19 16 20 21 19 14 17 15 10 13 14 13 11 18 15 19 22 6 4 3 9 8 14 9 6 9
15 6 15 13 15 17 16 19 20 16 14 9 12 12 5 5 4 8 7 5 12 16 9 14 18 18 17 17 17 17 16 16 17 16 22 13 11 12 14 8 4 7 3 1 9
10 3 7 14 20 15 15 21 20 16 15 16 13 11 11 10 9 9 8 5 9 9 13 12 14 15 20 4 8 9 17 16 19 18 22 21 6 5 12 17 15 12 2 1 11
8 2 5 3 12 14 12 11 21 16 17 10 16 15 13 11 14 15 9 9 10 15 13 12 13 14 19 20 16 16 15 20 17 19 21 22 16 16 9 25 21 17 1 6 4
5 6 13 9 8 7 18 15 13 20 16 16 15 13 14 14 14 12 14 15 10 10 15 15 17 14 22 21 21 23 19 18 18 15 18 21 22 7 11 7 19 6 6 8 3
10 13 9 4 8 12 11 14 15 16 13 14 13 16 12 15 16 12 6 12 7 11 11 15 14 15 21 19 21 23 18 20 18 17 19 18 11 12 10 5 13 4 5 9 6

GFSSW_700_spd_036.txt.gz
Wind_Speed
3 2 0 1 1 1 1 2 2 2 3 4 5 6 7 6 6 6 5 4 7 11 13 11 11 10 7 4 14 13 25 13 6 9 22 13 3 7 6 11 11 9 8 13 17
5 4 3 2 2 2 2 2 2 2 2 1 2 3 5 5 5 7 6 5 6 9 13 15 13 12 11 9 13 15 8 12 12 8 25 7 3 3 3 5 12 11 7 8 14
7 6 6 5 5 4 3 3 3 3 3 2 0 1 3 3 5 7 8 7 6 11 14 16 15 14 8 6 5 4 9 8 13 15 13 5 1 3 5 5 11 10 9 7 10
10 10 9 8 7 7 5 4 4 4 4 5 3 3 2 2 4 4 8 7 6 12 16 18 11 7 4 8 11 5 1 8 6 5 4 2 5 4 5 4 10 11 9 7 5
13 12 12 10 9 8 7 6 5 5 5 5 5 5 5 6 4 1 4 4 6 12 18 18 8 7 6 9 14 2 1 8 3 1 5 1 4 3 5 4 8 9 6 7 3
15 15 14 13 11 10 9 8 7 6 6 6 6 7 6 8 5 4 2 2 3 9 17 18 11 6 2 8 7 3 4 7 8 6 5 5 6 8 7 7 10 7 6 9 5
17 16 16 15 13 12 10 9 8 7 7 7 7 7 7 8 5 4 4 5 4 3 15 22 15 6 4 6 5 2 11 9 13 9 8 9 4 7 12 10 10 7 9 12 10
18 17 17 16 15 13 12 11 10 9 9 8 8 6 7 6 6 4 5 7 9 9 6 14 10 13 8 5 7 8 8 12 8 13 14 13 10 11 11 14 11 9 11 15 16
16 17 17 17 16 15 13 12 11 11 9 9 8 7 7 4 6 5 5 8 13 10 7 5 6 17 11 6 5 6 13 14 12 20 19 12 6 15 13 12 14 11 12 11 11
16 16 16 16 17 16 15 14 14 13 12 11 9 6 8 5 6 6 5 7 9 11 10 8 7 12 13 7 1 9 12 10 4 14 11 10 7 12 15 17 16 16 11 7 8
18 17 16 15 15 14 16 16 16 17 17 13 10 10 6 5 4 3 8 8 7 9 11 9 8 12 8 3 11 7 8 7 8 11 10 8 10 6 20 24 21 19 12 7 6
20 18 17 15 14 12 14 15 15 19 19 18 16 13 14 12 8 7 9 8 7 7 12 10 12 10 1 4 2 10 6 7 3 9 11 7 7 8 12 22 20 15 14 7 5
18 19 19 16 15 13 13 14 15 18 21 18 18 18 17 15 11 8 8 7 8 11 14 11 7 0 5 7 9 9 8 5 15 11 5 6 12 13 20 21 20 16 11 6 6
17 17 18 19 17 17 16 16 15 15 13 21 21 21 23 20 18 11 13 8 12 10 9 8 4 4 7 10 11 13 6 7 5 5 6 12 9 19 24 12 24 16 14 8 5
17 17 17 19 19 18 16 14 11 9 2 6 11 17 19 25 10 11 15 13 12 12 9 10 6 12 10 7 5 7 8 7 9 7 11 10 6 6 8 9 16 14 10 7 11
15 17 17 19 19 18 16 12 11 7 7 2 9 15 17 21 15 9 16 13 7 15 15 15 13 12 8 11 8 10 10 9 11 8 5 11 6 8 3 6 6 13 7 10 10
14 16 18 17 19 19 17 14 11 7 5 3 17 10 9 12 18 18 15 21 18 15 18 16 15 11 9 11 12 14 11 4 3 1 7 4 8 9 5 8 7 11 6 7 12
14 15 16 17 21 20 18 15 7 11 12 11 5 13 18 13 16 22 16 24 22 17 9 9 10 15 14 17 15 11 13 6 4 3 5 7 5 6 8 7 12 8 3 7 8
12 13 15 19 20 20 19 20 16 10 6 7 9 10 23 20 19 18 22 28 19 19 17 8 11 10 15 19 15 16 14 13 17 10 4 6 3 7 19 21 17 13 7 6 7
9 11 14 17 19 20 22 23 23 24 4 1 6 6 17 25 23 24 23 25 26 15 23 18 19 11 20 18 19 12 14 7 5 1 2 2 4 4 17 17 5 12 15 10 10
7 9 10 14 18 21 25 27 29 29 10 5 6 8 6 4 14 20 27 26 24 20 17 21 17 13 8 13 15 11 15 13 11 6 6 2 2 8 16 17 16 16 13 10 11
7 9 8 10 14 22 26 28 27 23 18 7 7 10 6 6 5 4 19 32 24 25 25 25 17 24 15 10 11 13 12 15 13 6 4 4 5 15 13 18 21 16 15 12 10
11 10 6 2 4 11 19 22 23 20 19 8 5 8 1 3 2 7 13 6 28 19 30 27 27 25 14 12 9 4 7 15 14 10 7 2 5 13 14 15 14 13 15 18 16
14 7 6 6 6 8 11 17 18 17 20 12 8 9 5 3 4 2 3 6 6 15 23 28 21 28 21 12 6 6 5 10 9 8 13 14 7 12 17 16 14 13 12 13 17
14 11 9 4 1 3 12 6 10 5 17 12 12 8 6 4 7 7 5 2 3 7 7 14 19 15 16 14 8 10 11 9 15 16 18 20 17 13 15 16 3 5 8 10 9
13 12 8 6 2 2 7 5 10 3 3 10 15 13 12 5 2 1 3 4 1 2 6 5 7 12 14 16 13 14 18 16 16 17 11 12 13 11 19 10 9 13 17 15 13
9 15 13 7 5 8 3 9 7 5 7 9 15 20 18 10 2 3 3 3 4 2 2 2 5 11 12 16 17 16 21 16 8 10 11 10 7 22 16 11 6 7 18 28 21

GFSSW_700_spd_042.txt.gz
Wind_Speed
4 3 2 2 1 1 1 1 2 2 3 5 5 5 6 8 9 11 12 14 13 13 14 13 12 8 11 5 13 13 9 7 7 5 9 9 5 6 10 11 11 15 15 15 13
5 4 3 2 1 1 1 1 1 1 2 3 5 5 5 8 8 7 8 11 15 16 16 15 19 14 8 7 14 13 10 5 5 6 5 8 5 4 8 12 10 14 11 12 14
7 6 5 4 3 3 3 3 2 2 2 3 4 4 5 9 8 5 5 9 14 19 19 17 20 10 5 4 1 4 7 4 3 7 6 5 4 2 6 7 10 11 11 10 11
10 9 7 7 5 5 5 4 3 3 2 3 4 5 5 9 5 5 5 8 12 19 19 18 18 12 7 3 7 6 3 4 2 1 2 4 4 2 1 6 14 12 10 8 10
13 12 10 10 8 7 7 7 5 4 3 3 4 6 6 7 7 5 4 8 12 17 20 21 19 13 8 6 8 3 2 2 2 2 2 4 4 7 1 1 8 12 13 8 8
16 15 14 12 11 9 9 9 7 6 4 3 4 6 7 8 8 6 5 6 10 15 20 20 19 14 8 4 7 3 1 5 3 2 2 5 7 8 4 4 4 7 10 8 7
18 18 17 15 13 12 11 11 10 8 6 5 4 5 7 8 9 9 8 8 10 13 19 18 17 16 10 6 6 3 5 5 6 6 5 4 11 11 7 7 2 5 5 11 8
18 18 18 17 15 14 14 13 12 10 8 7 5 5 5 5 8 10 9 10 9 13 16 20 15 13 10 9 7 7 8 11 13 14 14 12 16 10 8 6 5 6 5 7 12
18 18 18 18 17 16 16 14 14 12 11 9 7 6 5 7 9 10 11 14 13 11 13 17 17 14 8 10 9 6 11 12 4 13 16 17 18 13 9 6 6 4 5 3 8
17 18 18 18 18 18 18 15 16 15 13 11 10 7 7 8 8 9 12 15 17 15 12 16 19 19 17 12 8 4 7 8 11 4 14 18 19 15 12 9 9 10 8 5 4
17 17 17 16 16 18 20 17 17 17 16 13 7 9 6 8 7 9 10 12 16 17 17 17 17 20 18 10 9 8 7 8 7 8 6 12 12 9 8 6 11 15 12 9 2
20 19 19 18 16 16 18 17 17 17 16 16 15 13 10 9 9 8 10 12 12 14 17 19 17 11 16 12 8 5 3 7 9 8 6 5 8 4 3 6 11 17 14 11 4
20 20 20 21 18 16 16 14 14 14 18 16 17 17 16 14 12 9 8 10 10 11 15 16 9 12 12 11 7 5 5 8 6 6 3 6 8 4 10 11 14 15 18 13 6
19 19 18 20 19 17 16 13 10 11 10 14 13 19 18 19 16 11 9 9 11 10 11 11 10 9 8 14 9 4 7 7 5 3 2 4 3 12 12 12 11 11 6 11 9
17 16 19 19 17 17 16 11 8 7 4 3 8 14 16 22 11 14 13 12 10 10 13 9 12 9 4 13 7 1 3 1 3 5 5 6 2 4 7 8 9 1 8 7 7
16 15 16 18 17 16 16 11 9 6 7 2 4 8 15 21 23 12 8 17 12 13 17 15 12 9 6 8 11 5 4 3 5 7 3 6 1 2 3 8 4 2 6 6 5
15 14 15 14 17 16 16 13 9 7 6 1 2 8 12 20 27 24 15 21 18 14 19 19 16 12 6 4 8 9 7 1 2 2 5 5 4 4 6 8 7 5 7 7 7
12 13 13 14 17 16 17 17 7 7 17 6 3 6 8 16 22 24 21 20 23 14 9 14 8 16 9 10 8 6 8 5 4 3 3 5 2 5 7 6 3 6 8 6 3
11 11 12 15 16 17 20 21 16 9 8 18 14 6 9 11 12 18 24 23 22 21 11 7 8 8 12 10 9 11 6 8 4 2 2 3 3 5 3 1 3 7 6 6 10
9 9 11 15 16 19 22 25 19 20 8 4 6 4 4 10 16 15 21 22 25 19 18 8 5 12 8 10 12 15 10 5 5 4 3 3 4 5 4 2 9 5 10 6 12
7 7 10 13 16 20 25 26 26 16 19 6 3 3 2 1 7 21 12 19 14 23 19 23 13 7 9 2 9 16 16 12 5 4 7 2 3 4 3 9 13 14 15 15 16
5 7 10 14 17 22 26 26 28 26 20 15 7 4 3 2 4 11 22 16 17 17 23 22 8 17 19 13 6 10 10 12 8 6 6 3 3 1 3 10 16 16 20 16 13
5 8 10 13 11 14 19 22 25 26 21 16 20 9 6 4 3 6 12 19 26 18 24 24 15 19 5 2 8 8 9 8 8 7 8 5 2 6 7 12 16 19 17 12 14
6 8 9 9 10 10 16 19 20 21 20 21 20 18 12 7 5 5 10 10 20 20 21 20 25 20 16 10 7 11 9 9 6 5 5 5 6 7 6 9 17 18 18 13 14
7 9 10 8 10 9 10 10 13 12 15 13 20 20 13 9 9 8 6 8 6 14 20 25 24 28 22 18 15 13 11 10 7 3 1 1 5 8 5 8 12 17 17 14 16
6 10 11 7 5 4 6 8 11 10 15 16 13 23 14 7 11 9 8 8 6 9 12 19 18 23 26 23 16 17 14 10 9 7 6 6 9 8 9 12 12 14 14 15 18
6 12 12 11 7 4 2 4 8 6 10 14 12 17 17 11 9 10 10 8 7 8 11 14 17 22 16 17 14 11 13 11 9 8 6 9 11 13 13 8 8 9 10 13 16

GFSSW_700_spd_045.txt.gz
Wind_Speed
5 5 4 3 3 3 2 3 2 2 2 2 3 5 7 12 14 16 17 16 14 13 15 12 11 9 3 4 2 7 5 5 4 5 4 2 3 4 6 7 8 13 14 15 14
7 5 5 3 2 2 2 2 3 3 3 3 4 5 6 8 10 12 15 16 16 16 17 15 14 9 4 3 7 10 7 4 5 3 3 3 1 3 7 10 8 7 11 14 14
6 7 6 4 4 2 2 2 2 3 3 4 4 5 6 9 8 7 10 13 17 18 18 17 17 11 7 5 5 12 8 4 2 3 4 5 4 2 7 10 12 8 8 11 12
9 9 7 6 6 5 4 3 3 4 4 5 6 6 6 10 7 5 7 10 14 19 18 19 20 12 8 5 8 9 6 6 1 2 2 6 4 5 3 7 11 13 7 8 10
12 11 10 9 8 7 6 5 4 4 5 6 6 7 7 10 8 5 4 8 13 19 20 21 18 13 8 6 9 7 6 5 1 2 3 2 4 7 0 2 6 11 10 6 8
15 14 13 12 10 10 9 7 6 5 5 5 7 8 9 9 10 6 4 7 12 19 21 22 19 13 9 7 6 5 4 2 2 2 1 2 3 4 3 3 2 5 9 6 7
17 17 16 15 13 13 12 9 8 6 6 5 6 8 9 11 11 9 7 7 12 18 21 22 19 14 9 6 8 7 4 2 4 6 3 2 8 7 8 6 7 4 6 7 6
19 18 18 17 16 15 14 11 9 8 7 7 6 7 8 10 12 12 10 10 12 17 21 20 18 14 10 9 7 6 6 7 9 12 12 10 11 7 6 8 7 7 4 6 7
20 19 18 18 17 16 15 12 11 10 9 8 8 7 7 11 12 13 13 13 13 16 19 21 17 14 13 11 7 4 6 12 9 6 9 14 9 7 8 6 9 8 6 4 6
19 19 18 18 17 17 15 13 13 12 11 9 9 7 8 11 10 11 13 14 15 14 17 21 20 18 15 13 12 7 11 7 8 7 11 17 15 12 9 9 4 9 10 7 3
18 17 17 16 15 16 16 14 14 14 12 11 6 10 6 9 10 11 12 12 14 15 15 18 19 18 16 15 11 11 9 4 8 7 2 8 6 3 6 6 6 10 10 10 6
19 18 18 16 15 14 13 13 14 14 13 13 14 12 9 9 9 11 11 13 13 16 18 16 16 13 18 15 14 14 7 1 4 7 2 0 3 6 5 4 9 15 15 12 11
20 19 19 18 17 15 12 10 11 13 14 14 14 14 15 13 11 9 9 12 13 13 18 18 13 14 14 16 12 9 5 1 3 4 0 3 5 5 7 8 10 14 16 16 13
18 17 18 18 17 17 14 11 8 9 7 8 11 17 17 17 16 13 12 11 11 10 12 13 13 15 14 16 13 6 3 4 3 1 1 4 4 6 7 6 7 10 4 14 15
16 16 16 16 15 15 15 12 7 5 2 3 9 14 17 22 13 15 14 13 10 9 12 9 16 10 10 15 12 5 2 3 5 1 1 4 4 5 4 3 4 1 7 7 12
16 15 15 14 16 15 14 12 9 5 5 4 5 8 14 22 23 11 22 16 12 11 12 12 16 13 10 13 14 8 8 3 1 2 5 2 3 3 3 4 1 3 7 8 7
13 13 14 14 15 16 14 13 9 7 6 4 5 7 11 17 24 17 18 21 17 13 17 17 17 16 8 8 15 12 9 2 3 4 3 2 3 3 4 8 5 4 9 9 4
10 11 14 15 15 17 17 18 6 8 12 9 7 3 10 14 22 24 18 17 19 16 9 13 12 20 11 11 11 13 9 5 3 3 3 3 4 2 4 3 2 2 9 8 1
8 9 12 14 15 18 20 21 13 9 10 20 13 9 7 9 14 24 27 25 19 23 9 11 11 16 17 12 13 13 9 7 6 3 3 3 4 1 3 1 4 5 9 5 1
6 8 11 14 16 19 22 24 17 17 8 7 7 6 4 8 15 10 18 21 22 23 19 6 5 13 14 16 15 13 11 6 6 5 4 3 4 2 3 5 5 3 6 9 3
4 6 9 13 16 20 26 23 21 16 18 7 4 4 4 3 7 16 7 13 16 21 18 17 9 8 15 10 15 16 17 11 9 5 4 3 5 4 5 6 7 9 10 12 9
3 5 8 12 16 21 24 19 22 24 18 16 8 2 2 3 3 8 16 11 16 14 24 20 10 14 12 11 9 14 18 21 10 8 7 4 6 8 5 7 10 13 15 14 15
3 5 7 11 13 16 21 22 23 22 21 16 17 14 6 3 3 5 10 19 20 15 17 25 14 8 5 8 10 13 15 18 16 10 13 7 4 4 5 5 11 14 15 17 12
3 5 8 9 11 14 16 18 18 20 21 22 23 20 18 10 5 5 6 13 20 23 19 19 19 16 14 7 12 12 16 15 15 11 11 11 8 6 5 4 7 10 15 18 13
4 6 7 6 10 10 9 8 11 15 15 14 21 21 18 14 8 8 5 9 12 15 21 24 21 25 20 14 11 10 10 14 14 10 8 7 5 4 7 8 8 10 14 13 11
5 7 8 5 7 5 4 5 8 13 12 16 16 16 21 16 12 5 8 10 6 11 18 26 17 22 21 22 18 14 16 16 13 11 8 4 3 5 7 8 9 10 9 8 8
4 7 9 9 7 4 2 1 2 8 10 13 13 14 20 17 12 12 10 9 8 8 12 21 20 21 14 18 16 15 21 20 16 12 6 6 5 7 9 10 10 7 6 4 7